| time (UTC) | temp C | wind direction | speed KPH | gust KPH | rain 1hr cm | rain 24hr cm | rain mn cm | humidity % | barometer mb |
| 20260507044506 | 8 | 281 | 1.6 | 9.7 | 0.05 | 0.71 | 0.05 | 95 | 1011.7 |
| 20260507043002 | 8 | 260 | 4.8 | 14.5 | 0.03 | 0.71 | 0.05 | 95 | 1011.5 |
| 20260507041559 | 8 | 279 | 1.6 | 11.3 | 0.03 | 0.71 | 0.05 | 95 | 1011.3 |
| 20260507034602 | 8 | 271 | 0.0 | 11.3 | 0.00 | 0.69 | 0.03 | 95 | 1010.9 |
| 20260507033107 | 8 | 274 | 0.0 | 11.3 | 0.00 | 0.69 | 0.03 | 95 | 1010.9 |
| 20260507031602 | 8 | 279 | 1.6 | 9.7 | 0.00 | 0.69 | 0.03 | 95 | 1010.7 |
| 20260507030108 | 8 | 282 | 0.0 | 6.4 | 0.00 | 0.69 | 0.03 | 95 | 1010.7 |
| 20260507024609 | 8 | 275 | 0.0 | 6.4 | 0.00 | 0.69 | 0.03 | 95 | 1010.6 |
| 20260507023053 | 8 | 275 | 0.0 | 1.6 | 0.00 | 0.69 | 0.03 | 95 | 1010.6 |
| 20260507021555 | 8 | 274 | 0.0 | 3.2 | 0.00 | 0.69 | 0.03 | 95 | 1010.5 |
| 20260507020056 | 8 | 279 | 0.0 | 1.6 | 0.00 | 0.69 | 0.03 | 95 | 1010.5 |
| 20260507014555 | 8 | 279 | 0.0 | 9.7 | 0.00 | 0.69 | 0.03 | 95 | 1010.5 |
| 20260507013045 | 8 | 278 | 0.0 | 8.0 | 0.00 | 0.69 | 0.03 | 95 | 1010.3 |
| 20260507011548 | 8 | 278 | 0.0 | 8.0 | 0.00 | 0.69 | 0.03 | 95 | 1010.2 |
| 20260507010045 | 8 | 267 | 0.0 | 8.0 | 0.00 | 0.69 | 0.03 | 95 | 1010.2 |
| 20260507004543 | 8 | 265 | 0.0 | 11.3 | 0.00 | 0.69 | 0.03 | 95 | 1010.2 |
| 20260507003043 | 8 | 266 | 0.0 | 0.0 | 0.00 | 0.69 | 0.03 | 94 | 1010.2 |
| 20260507001542 | 8 | 266 | 0.0 | 3.2 | 0.00 | 0.69 | 0.03 | 94 | 1010.2 |
| 20260507000041 | 8 | 266 | 0.0 | 6.4 | 0.00 | 0.69 | 0.03 | 95 | 1010.2 |
| 20260506234552 | 8 | 263 | 0.0 | 8.0 | 0.00 | 0.69 | 0.03 | 94 | 1010.2 |
| 20260506233047 | 8 | 271 | 0.0 | 6.4 | 0.00 | 0.69 | 0.03 | 95 | 1010.2 |
| 20260506231537 | 8 | 267 | 0.0 | 8.0 | 0.00 | 0.69 | 0.03 | 95 | 1010.2 |
| 20260506230038 | 8 | 270 | 0.0 | 4.8 | 0.03 | 0.69 | 0.03 | 95 | 1010.2 |
| 20260506224540 | 8 | 281 | 1.6 | 8.0 | 0.03 | 0.69 | 0.03 | 95 | 1010.2 |
| 20260506223033 | 8 | 273 | 1.6 | 12.9 | 0.03 | 0.69 | 0.03 | 94 | 1010.1 |
| 20260506221531 | 8 | 282 | 1.6 | 9.7 | 0.05 | 0.69 | 0.03 | 95 | 1009.9 |
| 20260506220029 | 8 | 266 | 0.0 | 8.0 | 0.03 | 0.66 | 0.00 | 95 | 1009.8 |
| 20260506214526 | 8 | 281 | 1.6 | 9.7 | 0.03 | 0.66 | 0.66 | 95 | 1009.7 |
| 20260506213028 | 9 | 277 | 1.6 | 14.5 | 0.03 | 0.66 | 0.66 | 95 | 1009.5 |
| 20260506211530 | 9 | 265 | 3.2 | 14.5 | 0.00 | 0.64 | 0.64 | 94 | 1009.5 |
| 20260506210033 | 9 | 281 | 3.2 | 16.1 | 0.00 | 0.64 | 0.64 | 94 | 1009.4 |
| 20260506204528 | 9 | 282 | 0.0 | 12.9 | 0.03 | 0.64 | 0.64 | 94 | 1009.3 |
| 20260506203035 | 9 | 263 | 0.0 | 11.3 | 0.05 | 0.64 | 0.64 | 94 | 1009.3 |
| 20260506201526 | 10 | 275 | 0.0 | 8.0 | 0.05 | 0.64 | 0.64 | 94 | 1009.0 |
| 20260506200024 | 10 | 279 | 0.0 | 6.4 | 0.05 | 0.64 | 0.64 | 94 | 1009.0 |
| 20260506194522 | 10 | 281 | 0.0 | 4.8 | 0.05 | 0.61 | 0.61 | 94 | 1008.8 |
| 20260506193020 | 10 | 279 | 0.0 | 0.0 | 0.03 | 0.61 | 0.61 | 94 | 1008.6 |
| 20260506191521 | 10 | 274 | 0.0 | 6.4 | 0.05 | 0.61 | 0.61 | 94 | 1008.3 |
| 20260506190019 | 10 | 256 | 1.6 | 9.7 | 0.05 | 0.61 | 0.61 | 94 | 1008.0 |
| 20260506184518 | 10 | 275 | 0.0 | 4.8 | 0.05 | 0.61 | 0.58 | 94 | 1007.9 |
| 20260506183017 | 10 | 273 | 0.0 | 6.4 | 0.05 | 0.61 | 0.58 | 94 | 1007.8 |
| 20260506181516 | 10 | 258 | 1.6 | 11.3 | 0.10 | 0.61 | 0.56 | 94 | 1007.6 |
| 20260506180017 | 10 | 265 | 0.0 | 6.4 | 0.15 | 0.61 | 0.56 | 93 | 1007.5 |
| 20260506174514 | 10 | 264 | 0.0 | 6.4 | 0.23 | 0.61 | 0.53 | 93 | 1007.3 |
| 20260506173018 | 10 | 270 | 1.6 | 9.7 | 0.23 | 0.58 | 0.51 | 93 | 1007.4 |
| 20260506171515 | 10 | 270 | 0.0 | 8.0 | 0.23 | 0.53 | 0.48 | 93 | 1007.3 |
| 20260506170013 | 10 | 269 | 1.6 | 12.9 | 0.20 | 0.46 | 0.41 | 92 | 1007.2 |
| 20260506164511 | 11 | 265 | 0.0 | 8.0 | 0.15 | 0.38 | 0.33 | 92 | 1007.0 |
| 20260506163018 | 11 | 263 | 0.0 | 6.4 | 0.15 | 0.33 | 0.28 | 92 | 1006.9 |
| 20260506161511 | 11 | 257 | 0.0 | 6.4 | 0.18 | 0.30 | 0.23 | 91 | 1007.0 |
| 20260506160011 | 11 | 257 | 0.0 | 6.4 | 0.18 | 0.25 | 0.20 | 90 | 1006.9 |
| 20260506154508 | 11 | 261 | 0.0 | 11.3 | 0.20 | 0.28 | 0.20 | 89 | 1006.8 |
| 20260506153007 | 12 | 265 | 1.6 | 11.3 | 0.15 | 0.23 | 0.15 | 86 | 1006.7 |
| 20260506151508 | 12 | 273 | 0.0 | 16.1 | 0.08 | 0.15 | 0.08 | 82 | 1006.9 |
| 20260506150007 | 15 | 274 | 4.8 | 14.5 | 0.03 | 0.10 | 0.03 | 78 | 1006.6 |
| 20260506144507 | 16 | 274 | 0.0 | 4.8 | 0.00 | 0.20 | 0.00 | 72 | 1006.2 |
| 20260506143006 | 16 | 269 | 0.0 | 0.0 | 0.00 | 0.20 | 0.00 | 67 | 1006.1 |
| 20260506141504 | 17 | 270 | 0.0 | 4.8 | 0.00 | 0.20 | 0.00 | 62 | 1006.1 |
| 20260506140004 | 17 | 269 | 0.0 | 4.8 | 0.00 | 0.20 | 0.00 | 60 | 1006.0 |
| 20260506134504 | 17 | 269 | 0.0 | 0.0 | 0.00 | 0.23 | 0.00 | 61 | 1005.9 |
| 20260506133003 | 17 | 272 | 0.0 | 0.0 | 0.00 | 0.23 | 0.00 | 61 | 1005.8 |
| 20260506131505 | 16 | 272 | 0.0 | 6.4 | 0.00 | 0.23 | 0.00 | 60 | 1005.9 |
| 20260506130002 | 16 | 271 | 0.0 | 6.4 | 0.00 | 0.23 | 0.00 | 60 | 1005.7 |
| 20260506124501 | 16 | 279 | 0.0 | 4.8 | 0.00 | 0.23 | 0.00 | 60 | 1005.8 |
| 20260506123100 | 17 | 280 | 0.0 | 0.0 | 0.00 | 0.23 | 0.00 | 60 | 1005.8 |
| 20260506121559 | 17 | 234 | 0.0 | 4.8 | 0.00 | 0.23 | 0.00 | 60 | 1005.9 |
| 20260506120105 | 16 | 234 | 0.0 | 0.0 | 0.00 | 0.23 | 0.00 | 64 | 1006.2 |
| 20260506114552 | 16 | 234 | 0.0 | 3.2 | 0.00 | 0.23 | 0.00 | 67 | 1006.1 |
| 20260506113055 | 16 | 219 | 0.0 | 0.0 | 0.00 | 0.23 | 0.00 | 65 | 1006.2 |
| 20260506111548 | 16 | 227 | 0.0 | 6.4 | 0.00 | 0.23 | 0.00 | 71 | 1006.4 |
| 20260506110054 | 15 | 199 | 0.0 | 3.2 | 0.00 | 0.23 | 0.00 | 73 | 1006.5 |
| 20260506104551 | 15 | 195 | 0.0 | 0.0 | 0.00 | 0.23 | 0.00 | 74 | 1006.6 |
| 20260506103052 | 15 | 193 | 0.0 | 4.8 | 0.00 | 0.23 | 0.00 | 73 | 1006.6 |
| 20260506101557 | 15 | 276 | 0.0 | 0.0 | 0.00 | 0.23 | 0.00 | 75 | 1006.7 |
| 20260506094544 | 15 | 277 | 0.0 | 0.0 | 0.00 | 0.23 | 0.00 | 76 | 1006.6 |
| 20260506093047 | 15 | 277 | 0.0 | 0.0 | 0.00 | 0.23 | 0.00 | 78 | 1006.6 |
| 20260506091539 | 14 | 277 | 0.0 | 4.8 | 0.00 | 0.23 | 0.00 | 77 | 1006.7 |
| 20260506090037 | 14 | 277 | 0.0 | 6.4 | 0.00 | 0.23 | 0.00 | 77 | 1006.7 |
| 20260506084558 | 14 | 277 | 1.6 | 6.4 | 0.00 | 0.23 | 0.00 | 77 | 1006.7 |
| 20260506083036 | 14 | 277 | 0.0 | 8.0 | 0.00 | 0.23 | 0.00 | 78 | 1006.5 |
| 20260506081541 | 14 | 278 | 0.0 | 4.8 | 0.00 | 0.23 | 0.00 | 81 | 1006.6 |
| 20260506073036 | 12 | 279 | 0.0 | 6.4 | 0.00 | 0.23 | 0.00 | 93 | 1006.8 |
| 20260506071519 | 11 | 280 | 0.0 | 3.2 | 0.00 | 0.23 | 0.00 | 95 | 1006.6 |
| 20260506061513 | 10 | 280 | 0.0 | 0.0 | 0.00 | 0.23 | 0.00 | 95 | 1006.6 |